Weather History for Meknes, Morocco

Change the Weather History Date:

Sunday, February 9, 2014

  Actual Average Record
Temperature  
Mean Temperature 52 °F -  
Max Temperature 65 °F - - ()
Min Temperature 38 °F - - ()
Degree Days  
Heating Degree Days 14    
Growing Degree Days 2 (Base 50)    
Moisture  
Dew Point 42 °F    
Average Humidity 64    
Maximum Humidity 87    
Minimum Humidity 36    
Precipitation  
Precipitation 0.08 in - - ()
Sea Level Pressure  
Sea Level Pressure 30.07 in    
Wind  
Wind Speed 5 mph ()    
Max Wind Speed 16 mph    
Max Gust Speed -    
Visibility 5.5 miles    
Events Rain    
T = Trace of Precipitation, MM = Missing Value Source: Averaged Metar Reports

Daily Weather History Graph

Daily Weather History Graph

Search for Another Location

Airport:

Trip Planner

Search our weather history database for the weather conditions in past years. The results will help you decide how hot, cold, wet, or windy it might be!

Date:

Astronomy

Feb. 09, 2014 Rise Set
Actual Time 7:12 AM WET 6:00 PM WET
Civil Twilight 6:46 AM WET 6:26 PM WET
Nautical Twilight 6:17 AM WET 6:55 PM WET
Astronomical Twilight 5:48 AM WET 7:24 PM WET
Moon 1:34 PM WET (2/9) 3:01 AM WET (2/9)
Length of Visible Light 11h 39m
Length of Day
10h 47m
Waxing Gibbous, 75% of the Moon is Illuminated
Feb 9
Waxing Gibbous
Feb 14
Full
Feb 22
Last Quarter
Mar 1
New
Mar 8
First Quarter

Hourly Weather History & Observations

Time (WET) Temp. Windchill Dew Point Humidity Pressure Visibility Wind Dir Wind Speed Gust Speed Precip Events Conditions
12:00 AM 48 °F - 38 °F 60% 30.20 in 5 mi SSE 4.6 mph - -   Partly Cloudy
12:00 AM 48.2 °F - 39.2 °F 71% 30.18 in 5.0 mi SSE 4.6 mph - N/A   Unknown
1:00 AM 48.2 °F - 35.6 °F 62% 30.18 in 5.0 mi West 3.5 mph - N/A   Unknown
2:00 AM 48.2 °F - 35.6 °F 62% 30.18 in 5.0 mi West 3.5 mph - N/A   Unknown
3:00 AM 44 °F - 37 °F 67% 30.17 in 5 mi South 3.5 mph - -   Scattered Clouds
3:00 AM 44.6 °F 43.1 °F 37.4 °F 76% 30.18 in 5.0 mi South 3.5 mph - N/A   Unknown
4:00 AM 42.8 °F 41.1 °F 37.4 °F 81% 30.18 in 5.0 mi South 3.5 mph - N/A   Unknown
5:00 AM 41.0 °F - 37.4 °F 87% 30.12 in 5.0 mi Calm Calm - N/A   Unknown
6:00 AM 42 °F - 37 °F 78% 30.14 in 5 mi SE 3.5 mph - -   Clear
6:00 AM 42.8 °F 41.1 °F 37.4 °F 81% 30.09 in 5.0 mi SE 3.5 mph - N/A   Unknown
7:00 AM 44.6 °F 42.2 °F 39.2 °F 81% 30.09 in - SSE 4.6 mph - N/A   Clear
8:00 AM 44.6 °F - 39.2 °F 81% 30.09 in - SSE 2.3 mph - N/A   Clear
9:00 AM 54 °F - 44 °F 59% 30.12 in 6 mi Calm Calm - -   Clear
9:00 AM 53.6 °F - 44.6 °F 72% 30.12 in - Calm Calm - N/A   Clear
10:00 AM 55.4 °F - 44.6 °F 67% 30.12 in - Calm Calm - N/A   Clear
11:00 AM 57.2 °F - 41.0 °F 55% 30.12 in - West 4.6 mph - N/A   Clear
12:00 PM 59 °F - 40 °F 37% 30.08 in 6 mi WSW 4.6 mph - -   Scattered Clouds
12:00 PM 59.0 °F - 39.2 °F 48% 30.09 in - WSW 4.6 mph - N/A   Clear
1:00 PM 60.8 °F - 42.8 °F 52% 30.06 in 6.2 mi West 4.6 mph - N/A   Scattered Clouds
2:00 PM 62.6 °F - 44.6 °F 52% 30.01 in 6.2 mi WNW 5.8 mph - N/A   Mostly Cloudy
3:00 PM 64 °F - 44 °F 36% 29.95 in 6 mi West 9.2 mph - -   Scattered Clouds
3:00 PM 64.4 °F - 42.8 °F 45% 30.01 in 6.2 mi WSW 9.2 mph - N/A   Mostly Cloudy
4:00 PM 66.2 °F - 44.6 °F 46% 29.95 in 6.2 mi West 6.9 mph - N/A   Mostly Cloudy
5:00 PM 64.4 °F - 42.8 °F 45% 29.98 in 6.2 mi West 11.5 mph - N/A   Mostly Cloudy
6:00 PM 62 °F - 46 °F 45% 29.94 in 6 mi WNW 9.2 mph - -   Scattered Clouds
6:00 PM 62.6 °F - 46.4 °F 55% 29.98 in 6.2 mi WNW 9.2 mph - N/A   Scattered Clouds
7:00 PM 57.2 °F - 50.0 °F 77% 30.01 in 6.2 mi West 15.0 mph - N/A   Scattered Clouds
8:00 PM 57.2 °F - 50.0 °F 77% 30.01 in 6.2 mi West 15.0 mph - N/A   Scattered Clouds
9:00 PM 58 °F - 50 °F 68% 29.98 in 6 mi West 15.0 mph - -   Scattered Clouds
9:00 PM 57.2 °F - 50.0 °F 77% 30.01 in 6.2 mi West 15.0 mph - N/A   Scattered Clouds
10:00 PM 55.4 °F - 50.0 °F 82% 29.98 in 3.7 mi SW 11.5 mph - N/A   Mostly Cloudy
11:00 PM 57.2 °F - 50.0 °F 77% 29.95 in 3.7 mi SW 16.1 mph - N/A Rain Light Rain